Flag for China Weather past 2 weeks in Shenzhen, Guangdong, China

Now
81 °F

Partly sunny.


Feels Like: 86 °F
Forecast: 67 / 75 °F
Wind: 10 mph from South

Location: Shenzhen Airport

Current Time: Apr 20, 2015 at 9:22:49 AM

Latest Report: Apr 20, 2015 at 9:00 AM


Visibility: N/A

Pressure: 29.77 "Hg

Humidity: 84%

Dew point: 75 °F

Location of ShenzhenLocation

Historic Weather in Shenzhen — Graph

°F

Shenzhen temperature yesterday

Maximum temperature yesterday: 82 °F (at 3:00 PM)
Minimum temperature yesterday: 77 °F (at 12:00 AM)
Average temperature yesterday: 79 °F

Past Weeks' High & Low Weather Summary

 TemperatureHumidityPressure
High84 °F (Apr 6, 1:00 PM)94% (Apr 6, 9:00 PM)30.15 "Hg (Apr 6, 9:00 PM)
Low57 °F (Apr 8, 9:00 PM)17% (Apr 14, 11:00 AM)29.68 "Hg (Apr 19, 5:00 PM)
Average71 °F74%29.97 "Hg
* Reported Apr 5 8:00 AM — Apr 20 8:00 AM, Shenzhen, Weather by CustomWeather, © 2015

Note: Actual official high and low records may vary slightly from our data, if they occured in-between our weather recording intervals... More about our weather records

Advertising

Shenzhen weather history for previous 24 hours

 ConditionsComfort  
Time TempWeatherWind HumidityBarometerVisibility
8:00 AM
Mon, Apr 20
79 °FPartly sunny.10 mph89%29.77 "HgN/A
7:00 AM77 °FLight rain. Partly sunny.8 mph94%29.77 "Hg5 mi
6:00 AM77 °FPartly sunny.8 mph94%29.74 "HgN/A
5:00 AM77 °FPassing clouds.10 mph89%29.71 "HgN/A
4:00 AM77 °FPassing clouds.15 mph89%29.68 "HgN/A
3:00 AM79 °FPassing clouds.15 mph84%29.71 "HgN/A
2:00 AM79 °FPassing clouds.13 mph89%29.74 "HgN/A
1:00 AM79 °FPassing clouds.15 mph89%29.74 "HgN/A
12:00 AM79 °FPassing clouds.13 mph89%29.77 "HgN/A
11:00 PM
Sun, Apr 19
79 °FPassing clouds.15 mph89%29.77 "HgN/A
10:00 PM79 °FPassing clouds.15 mph89%29.77 "HgN/A
9:00 PM79 °FPassing clouds.15 mph89%29.74 "HgN/A
8:00 PM77 °FPassing clouds.15 mph94%29.71 "HgN/A
7:00 PM79 °FClear.17 mph84%29.71 "Hg10 mi
6:00 PM79 °FPassing clouds.20 mph89%29.71 "HgN/A
5:00 PM79 °FSunny.17 mph89%29.68 "Hg10 mi
4:00 PM82 °FSunny.17 mph79%29.71 "Hg10 mi
3:00 PM82 °FSunny.17 mph79%29.71 "Hg10 mi
2:00 PM81 °FPartly sunny.17 mph84%29.74 "HgN/A
1:00 PM81 °FPartly sunny.15 mph84%29.77 "HgN/A
12:00 PM81 °FOvercast.13 mph84%29.80 "HgN/A
11:00 AM79 °FOvercast.13 mph89%29.80 "HgN/A
10:00 AM79 °FOvercast.13 mph84%29.80 "HgN/A
9:00 AM79 °FOvercast.13 mph84%29.80 "HgN/A
Weather by CustomWeather, © 2015

See weather overviewHow to use our weather pages